Regional Weather Roundup
Issued by NWS Tiyan, Guam

Home | Current Version | Previous Version | Text Only | Print | Product List | Glossary On
Versions: 1 2 3 4 5 6 7 8 9 10 11 12 13 14 15 16 17 18 19 20 21 22 23 24 25 26 27
000
ASGM40 PGUM 270110
RWRGUM
WEATHER ROUNDUP FOR THE MARIANAS
NATIONAL WEATHER SERVICE TIYAN GU
1100 AM CHST FRI APR 27 2018

GUZ001>004-270200-
MARIANA ISLANDS-

CITY           SKY/WX    TMP DP  RH WIND       PRES   REMARKS
GUAM AIRPORT   LGT RAIN  82  81  94 E13       29.89F HX  95
ANDERSEN AFB   PTSUNNY   82  77  83 E17G23    29.90F HX  91
ROTA AIRPORT   LGT RAIN  81  77  89 E20       29.90F
TINIAN AP      PTSUNNY   79  77  94 NE17      29.89F
SAIPAN AP      LGT RAIN  82  81  94 E14       29.90F HX  95

$$





USA.gov is the U.S. government's official web portal to all federal, state and local government web resources and services.